Location: Cardiff
(53.7833°N, 113.6000°W)
Time: 05:44:59
(UTC+00:00)

SO-50 - Pass Details

Date: 12 December 2023
Orbit: 608 x 660 km, 64.6° (Epoch: 02 March)

Event Time Altitude Azimuth Distance (km) Brightness Sun altitude
Exits shadow 12:22:45 20° 17° (NNE) 1,476 ? -28.0°
Drops below altitude 10° 12:24:54 10° 41° (NE) 2,030 ? -27.6°
Sets 12:27:32 0° 55° (NE) 2,928 ? -27.3°
